Theta_e
306 297 292 291 294 295 296 297 298 296 295 294 295 294 291 292 293 295 295 296 297 294 291 293 294 294 295 297 298 298 298 298 298 298 300 300 301 301 301 301 302 303 305 307 309 309 309 310 311 310 310 310 312 312 313 314 315 315 315 313 313 314 314 314 313 314 313 313 312 311 312 311 312 314 313 315 318 321 322 321 323 324 324 326 326 326
305 295 295 297 298 297 297 297 297 296 295 294 294 293 290 295 290 296 295 297 296 293 290 292 292 293 295 297 298 298 298 298 298 299 299 299 300 302 302 302 302 303 305 309 309 309 308 308 309 309 309 308 310 311 312 313 314 314 314 313 313 313 313 314 314 314 313 312 313 312 311 309 310 312 312 313 316 320 319 319 319 320 321 321 323 322
293 292 296 299 299 298 298 297 296 295 296 295 292 291 291 291 294 295 295 296 297 294 289 291 291 293 295 297 298 298 299 300 300 300 300 300 299 301 302 303 303 302 304 308 308 308 307 308 308 307 307 308 309 309 310 311 312 313 313 313 313 313 313 313 313 313 312 310 311 311 309 312 309 311 313 314 316 317 316 316 315 317 318 319 319 319
290 293 297 299 299 296 295 296 296 297 297 293 291 290 288 294 291 288 293 295 295 293 290 290 291 293 296 297 297 299 299 300 300 301 301 301 300 301 302 303 302 302 303 306 308 307 306 307 307 306 306 307 307 308 308 309 311 313 313 312 313 313 312 313 312 311 311 310 310 310 310 313 312 308 307 308 309 313 312 312 312 311 314 316 317 317
293 297 297 298 297 297 296 296 295 292 289 294 295 293 291 295 294 292 291 294 295 295 295 292 291 292 295 294 295 298 300 299 299 299 300 301 303 303 304 304 304 302 302 304 306 307 305 306 305 306 305 306 307 307 308 309 310 313 312 312 312 312 312 312 310 311 311 310 310 307 305 305 305 305 306 306 306 308 310 309 309 309 309 312 313 314
295 297 301 296 298 296 297 292 293 295 288 291 295 295 294 295 293 296 296 294 289 288 294 295 281 283 290 291 292 296 297 297 299 299 300 301 301 302 303 303 303 305 305 304 304 306 306 306 305 304 305 305 305 306 308 309 310 310 311 311 311 311 311 311 310 310 311 310 308 305 304 303 303 303 305 306 307 305 305 307 307 306 306 308 310 311
295 297 299 298 297 296 297 295 296 297 290 289 290 297 299 295 295 294 293 292 283 282 293 295 284 281 289 290 293 293 293 294 295 297 299 299 301 301 302 303 303 304 304 305 305 306 305 304 304 304 304 304 305 305 306 308 308 309 310 310 311 311 310 310 309 310 309 308 307 307 306 306 305 305 305 309 311 308 306 305 305 305 304 305 307 308
295 296 297 298 298 295 295 291 297 296 292 287 296 297 297 296 293 294 294 292 287 294 295 293 290 281 282 289 292 293 294 294 294 296 298 298 300 301 301 303 303 304 304 306 305 305 304 305 305 304 304 304 305 305 306 307 308 309 309 309 309 310 309 310 310 310 309 307 307 305 306 306 306 306 305 307 308 308 306 305 304 302 302 302 303 304
297 293 296 295 295 293 292 296 299 297 293 293 295 299 297 297 296 296 292 289 289 287 283 288 293 283 282 289 294 293 292 291 293 294 296 298 298 299 301 303 303 304 304 306 305 304 304 303 304 304 304 304 305 306 306 307 307 308 308 309 309 309 308 309 309 309 308 307 307 306 306 305 306 307 306 305 306 307 306 306 303 301 300 300 300 301
298 297 298 299 294 291 296 293 297 300 292 294 298 299 298 298 297 295 290 288 286 283 280 287 291 282 283 288 290 291 291 292 292 294 295 296 299 301 302 301 302 304 303 303 304 304 304 304 303 303 305 304 304 306 307 307 307 308 308 308 308 308 308 308 308 308 307 306 306 305 305 306 307 307 307 306 304 305 305 305 302 301 298 298 297 297
296 297 297 299 296 298 293 294 296 296 297 298 298 296 295 294 290 290 288 285 283 279 281 290 292 287 280 286 289 289 293 293 294 294 296 299 301 302 303 303 303 303 303 303 302 302 302 301 302 301 302 303 304 305 306 306 307 307 307 307 307 307 307 307 307 307 306 306 306 306 305 306 306 307 308 305 304 302 302 303 302 301 299 297 296 295
296 296 295 298 298 298 297 294 297 299 298 298 294 290 290 287 287 285 284 284 279 277 285 287 292 290 278 281 292 294 293 294 295 294 296 298 300 302 303 303 304 302 303 303 301 300 299 299 300 300 300 301 303 304 304 305 306 306 306 306 306 306 306 306 306 305 306 306 305 305 306 306 306 307 308 306 304 302 301 302 300 299 297 295 295 295
290 293 296 296 297 298 295 292 292 295 296 297 291 288 283 281 281 279 283 278 278 277 284 284 288 284 286 288 291 293 294 295 296 297 298 297 299 302 303 303 303 302 302 302 302 301 299 298 298 298 299 300 302 303 303 305 305 305 305 305 305 305 305 305 305 304 304 305 305 305 305 306 307 307 308 308 306 304 303 303 301 298 297 295 294 294
288 294 295 295 295 297 298 289 286 284 290 292 288 283 280 276 276 273 277 280 281 282 282 283 288 281 287 290 294 295 297 295 296 299 300 301 300 300 301 305 304 303 302 302 302 302 300 301 299 299 299 300 301 302 303 304 304 304 305 305 305 305 305 304 304 304 304 304 304 304 305 306 306 308 309 309 308 306 304 304 302 299 299 296 295 294
280 282 290 292 288 297 296 294 292 289 290 291 292 290 283 280 276 273 276 275 276 279 282 283 280 279 279 284 292 296 297 297 297 297 299 300 301 300 301 300 301 303 301 302 302 303 303 303 302 300 300 300 301 302 303 303 304 304 304 305 304 304 305 303 303 303 303 303 303 304 304 305 306 307 308 308 307 306 303 302 302 300 300 299 297 297
286 286 294 297 296 297 295 298 298 294 290 291 293 294 285 283 286 278 281 280 280 280 279 280 280 283 286 292 295 294 294 294 295 296 297 296 298 301 300 300 300 301 301 301 301 302 302 303 303 302 301 300 300 301 302 303 304 304 304 304 304 304 304 303 301 302 302 302 302 302 303 304 305 305 307 305 304 304 303 301 301 300 300 301 300 299
285 282 294 296 296 295 295 298 298 297 282 288 290 284 288 292 289 284 280 282 280 278 277 281 283 287 290 293 295 295 295 295 295 294 296 296 296 298 299 299 298 300 299 300 301 302 302 301 303 303 301 300 301 301 302 303 304 304 304 303 303 303 302 303 301 301 301 301 301 301 302 302 303 303 303 304 302 301 302 302 302 301 300 300 301 299
284 287 289 292 291 295 293 296 298 295 298 291 283 288 293 294 292 285 278 281 278 275 278 280 279 282 280 281 290 289 291 291 291 292 294 295 294 297 298 298 299 299 302 302 302 302 302 301 301 300 301 301 301 301 301 302 303 304 303 303 303 303 303 303 302 301 301 301 300 300 301 301 302 302 302 303 302 301 300 301 300 300 300 299 298 297
292 283 287 290 292 294 297 296 295 297 296 292 289 297 288 281 281 283 280 274 272 273 275 278 280 282 284 285 289 289 288 290 292 293 294 295 296 296 296 299 301 303 302 303 302 302 302 301 300 300 300 300 301 301 302 302 303 303 302 303 303 303 304 304 303 302 301 301 301 300 300 301 301 302 301 301 301 301 300 299 299 298 298 297 295 294
293 283 285 288 291 294 294 292 284 286 294 296 295 292 295 287 282 281 281 280 280 274 273 277 278 279 288 289 289 290 291 293 294 293 293 292 295 296 297 303 303 302 302 302 302 302 301 300 299 299 299 299 300 301 301 302 302 302 303 302 303 303 303 303 303 301 301 300 300 300 299 300 301 301 301 300 300 299 299 298 297 297 296 296 293 292
287 289 280 285 290 291 283 288 286 289 286 284 285 284 287 285 288 284 285 282 278 275 275 274 276 281 288 291 291 292 293 294 293 296 297 298 298 298 302 304 303 303 302 301 301 301 301 299 298 298 298 298 296 297 300 302 302 302 302 302 302 302 302 302 303 302 301 300 300 299 299 299 299 298 298 298 299 298 298 296 295 294 295 293 292 291
286 283 282 282 282 283 286 293 292 293 293 290 289 287 289 285 282 278 279 287 283 281 276 276 276 283 292 294 294 293 294 294 297 295 297 296 295 297 299 303 302 302 303 302 302 303 301 298 298 297 296 295 295 297 299 301 300 301 301 302 302 302 302 301 302 302 300 299 300 299 299 298 297 297 296 295 295 295 295 295 294 293 292 292 290 290
293 288 284 281 283 287 290 295 296 296 296 293 291 288 291 289 286 281 277 278 284 282 283 281 278 283 294 293 293 293 294 296 297 296 294 295 296 296 301 303 301 300 301 302 301 300 299 298 297 295 294 294 296 296 296 297 300 301 300 300 300 301 301 301 301 301 300 298 297 297 297 296 295 294 293 293 293 293 293 293 292 291 291 290 288 289
296 286 283 284 290 292 292 295 295 296 296 291 292 291 289 287 288 285 282 281 281 281 280 280 278 284 293 295 293 294 294 297 295 296 296 296 297 300 299 300 300 300 301 300 299 297 297 296 295 295 293 295 295 294 296 297 298 299 300 300 300 300 300 300 300 300 299 297 296 295 294 294 293 292 291 292 291 292 292 292 291 290 291 290 288 288
286 285 285 281 281 284 285 289 288 291 291 285 285 291 292 292 292 286 284 284 282 282 282 280 277 283 293 295 293 293 293 295 294 294 295 296 297 298 298 301 301 301 300 299 299 298 296 294 294 295 294 294 294 294 295 296 298 299 300 300 300 300 300 300 300 299 299 296 294 293 293 293 292 292 291 291 290 290 290 290 290 289 290 289 288 288
291 288 286 281 278 276 275 276 278 281 285 286 288 290 293 292 290 285 283 282 281 283 284 282 282 288 293 293 293 293 292 293 293 294 297 296 296 298 297 298 300 301 300 299 299 297 296 297 295 295 294 295 295 295 296 296 296 297 298 299 299 299 298 299 298 298 298 296 294 293 293 292 292 292 292 291 290 289 289 289 289 289 289 289 288 287
287 290 290 286 284 282 282 284 289 291 284 283 285 288 289 291 292 290 285 283 283 285 284 285 286 287 289 292 292 294 291 292 294 294 295 296 296 297 296 298 298 298 298 298 297 296 295 295 297 297 296 296 296 296 296 296 296 296 297 297 297 298 298 298 297 297 296 295 294 293 292 292 292 292 292 291 291 290 289 288 288 288 288 288 288 287
287 287 289 291 289 289 290 291 295 293 287 288 286 286 288 288 288 288 286 285 289 282 281 288 289 286 288 291 293 293 293 294 296 296 296 296 296 297 299 299 299 296 296 296 296 296 297 298 297 297 297 296 296 296 296 297 297 296 296 296 296 296 296 298 296 295 295 294 293 293 293 292 291 291 291 291 290 289 289 288 287 287 287 287 287 286
286 285 289 290 289 291 292 293 295 294 293 291 290 289 288 289 287 286 287 290 289 284 283 287 287 287 290 292 294 294 294 295 296 297 297 297 297 299 299 298 297 298 299 298 298 297 297 298 298 298 298 298 296 295 296 296 295 294 294 294 294 294 295 295 294 294 294 293 293 294 292 291 291 290 290 290 289 288 288 287 287 286 286 286 286 286
288 285 289 289 288 289 290 291 291 290 289 289 290 291 292 290 289 289 289 291 290 288 290 290 290 289 292 293 295 296 297 298 298 299 299 299 299 299 298 299 299 299 299 299 298 299 299 300 300 299 299 298 297 296 295 295 294 295 295 294 293 294 294 293 294 294 294 293 294 293 291 291 290 290 289 289 289 288 287 286 286 286 285 284 284 285
291 286 291 287 286 286 289 290 289 289 288 286 288 290 292 291 291 290 290 290 290 290 291 291 290 289 294 296 296 298 299 299 298 298 298 299 299 299 298 297 298 299 300 299 300 301 301 300 300 300 299 299 298 298 297 296 296 295 294 293 293 294 294 293 293 293 294 294 293 291 291 290 289 288 288 288 288 287 286 285 285 285 285 283 283 284
290 286 288 286 284 285 288 287 287 288 288 287 287 288 290 289 287 289 288 292 290 288 290 289 287 288 294 296 297 298 298 297 297 298 298 299 300 298 296 298 299 299 299 300 300 301 301 301 299 299 299 300 299 298 297 296 295 293 294 294 294 294 293 293 293 294 294 294 291 290 290 289 288 288 287 287 287 286 285 284 284 284 285 284 283 284
288 287 285 284 283 284 287 286 285 285 285 284 285 288 290 290 291 292 293 294 293 294 289 287 288 294 296 297 295 296 297 297 297 298 298 299 299 297 297 299 300 299 300 300 301 301 301 301 300 301 301 299 300 300 299 298 295 294 294 294 294 292 292 293 293 293 293 292 290 290 290 288 287 287 286 286 285 285 284 284 283 284 284 284 284 284
287 286 285 287 282 283 285 283 284 282 277 279 291 293 292 289 290 288 289 291 293 294 292 295 295 296 296 296 295 296 296 297 298 299 300 300 298 295 297 298 299 299 299 300 301 301 302 302 301 300 300 301 300 300 300 298 297 296 295 293 290 292 292 292 292 292 291 290 290 289 289 287 287 287 286 285 285 284 283 283 283 284 284 284 284 283
286 286 284 287 284 283 284 283 281 277 279 290 294 294 294 294 293 291 292 293 293 295 295 295 296 296 297 298 297 298 298 299 299 298 299 300 298 298 298 299 300 300 301 301 301 301 302 302 301 300 298 298 298 297 294 293 294 290 290 291 291 291 291 291 291 290 290 289 289 288 288 287 286 286 285 285 284 283 283 283 283 283 284 284 284 283
285 285 285 285 285 286 283 281 275 277 286 290 292 294 295 294 294 292 290 292 294 295 295 294 296 297 298 298 299 299 299 298 296 296 298 299 300 299 299 300 300 300 299 301 301 301 301 300 299 299 298 295 295 293 291 292 290 291 290 289 291 290 290 289 289 289 288 288 288 287 287 286 285 285 284 284 283 283 282 282 282 283 284 284 283 284
290 287 285 283 287 280 282 281 280 286 285 287 287 288 288 286 286 288 285 289 295 296 296 295 296 297 298 298 299 299 297 295 295 299 300 300 301 298 300 301 301 301 301 301 301 300 299 297 296 294 291 291 291 290 290 287 288 289 288 288 288 288 288 288 288 288 288 287 287 287 286 286 285 284 284 283 283 282 281 281 281 282 284 283 283 283
293 287 288 284 283 286 281 279 280 279 276 282 289 293 293 294 294 294 290 288 294 294 297 296 296 297 297 297 297 295 294 293 292 296 300 298 295 298 299 299 299 298 296 295 294 293 292 291 290 288 291 289 288 288 287 287 287 287 287 286 286 287 287 287 287 287 287 287 286 286 285 285 285 284 283 283 282 282 281 281 281 282 283 283 282 282
293 293 288 285 283 284 282 279 278 277 279 286 286 289 291 291 293 291 288 285 291 292 292 293 294 296 296 295 294 293 291 290 291 296 299 298 292 291 292 292 291 290 288 288 288 289 287 286 287 288 287 288 288 287 286 286 287 287 287 286 286 286 286 287 286 286 286 286 285 284 284 284 284 284 283 282 282 281 281 281 281 282 283 283 283 282
287 287 286 283 282 283 282 280 277 281 280 284 285 285 287 290 294 289 280 281 289 289 292 292 292 293 292 292 292 292 289 289 291 296 299 291 290 289 289 291 292 291 290 288 287 285 285 286 287 287 287 287 286 284 284 285 286 286 286 285 285 285 286 286 286 284 284 284 284 284 284 284 284 283 283 282 281 281 281 281 281 281 282 282 282 282
284 284 285 281 284 284 283 281 283 284 288 290 291 292 289 293 290 281 277 284 288 289 289 289 288 288 289 290 291 289 290 293 295 296 294 290 290 290 289 288 288 287 289 288 287 286 286 286 286 287 286 285 284 284 283 284 285 285 284 284 284 285 284 284 284 285 284 283 283 283 283 283 283 283 282 282 281 281 281 280 280 281 282 281 281 281
285 285 285 285 282 281 282 280 280 284 288 290 290 291 290 288 281 279 285 286 286 288 289 287 287 287 288 288 288 289 292 293 294 294 294 292 288 289 288 289 289 290 287 286 285 284 285 285 284 283 283 283 283 283 283 284 284 284 283 284 284 283 284 284 284 284 283 283 283 283 283 282 282 282 282 281 282 280 279 279 280 281 282 281 280 280
282 282 280 282 284 285 283 280 279 276 285 288 287 288 289 284 283 285 285 286 287 286 288 289 287 287 287 287 287 289 291 292 292 293 292 292 290 289 289 289 289 289 289 288 288 284 284 284 283 283 282 282 283 283 282 283 283 283 283 283 283 283 284 284 283 283 283 283 282 282 282 282 282 282 282 281 281 280 279 279 279 280 280 280 279 279
285 280 280 283 285 278 279 277 278 284 286 290 289 282 285 287 289 289 288 287 287 287 288 289 289 288 288 287 288 288 289 290 291 292 292 291 291 291 290 288 287 287 287 286 284 284 283 283 282 282 281 282 282 282 282 283 283 282 282 282 281 283 283 283 283 283 282 282 281 281 281 281 281 281 281 280 280 279 278 278 278 279 279 280 279 278
286 283 283 281 282 283 280 283 285 285 286 289 288 288 289 290 289 289 290 290 288 288 290 289 290 290 289 287 287 287 288 290 291 292 291 292 292 291 291 291 289 288 287 287 286 283 282 283 282 281 280 281 281 281 281 281 283 282 282 281 281 283 282 282 282 281 281 280 280 280 280 280 280 280 280 279 279 279 278 278 278 278 278 279 279 278
284 283 284 282 281 284 285 286 286 285 285 286 288 286 286 285 286 287 288 288 289 289 288 288 289 290 289 288 288 287 288 289 291 291 291 292 292 293 292 290 288 286 286 285 284 282 281 281 280 280 280 279 280 280 281 280 281 282 281 280 281 282 282 281 281 280 279 279 280 280 280 279 279 280 280 280 280 280 279 279 279 278 278 279 279 278
284 283 280 279 282 282 277 285 283 283 284 283 285 285 285 285 287 287 286 286 287 287 286 287 289 289 289 287 288 289 290 290 289 291 291 291 291 292 292 291 290 288 287 287 287 283 281 280 281 281 280 279 278 278 279 279 280 280 281 281 281 281 281 281 281 280 280 279 280 280 281 280 280 280 280 280 280 280 280 280 280 279 279 279 279 278
277 283 278 280 281 281 279 283 281 283 283 283 285 284 285 286 286 287 288 288 289 288 288 289 288 289 289 289 289 289 289 290 288 289 290 291 291 291 291 291 291 290 288 286 285 282 281 281 281 281 280 279 277 278 278 278 277 279 280 280 281 281 281 281 281 281 280 280 281 281 281 281 280 280 280 280 280 280 280 280 280 280 280 280 279 278
280 281 273 280 278 278 280 280 281 282 281 282 284 285 285 285 285 285 286 287 286 286 287 288 287 290 290 290 290 289 289 290 290 290 290 291 290 290 291 291 291 290 288 285 282 281 282 281 281 281 280 279 277 276 277 277 277 279 280 281 281 282 282 281 281 281 281 281 281 281 281 281 281 281 281 280 280 280 280 281 280 280 279 279 280 280
279 276 278 278 275 276 277 279 282 277 277 280 281 283 284 285 285 285 285 286 286 286 286 288 289 290 289 289 289 289 289 290 290 289 289 290 290 290 290 290 290 289 288 283 280 280 280 280 281 280 280 278 276 276 276 277 279 280 281 281 282 282 282 281 281 281 280 281 281 281 281 281 281 281 279 279 278 278 279 281 282 281 279 279 283 284
279 278 279 276 277 276 280 279 281 280 280 282 284 284 284 285 285 285 285 286 286 286 287 288 289 289 289 290 290 288 288 289 289 290 289 289 289 289 289 288 288 288 287 282 279 279 279 280 279 279 278 276 275 275 276 278 279 281 282 282 283 282 282 282 281 281 281 281 280 281 281 281 280 279 279 279 278 278 278 278 280 282 282 282 282 283
Wind_Speed
1 2 3 4 4 5 4 6 1 4 4 2 0 1 3 4 2 3 3 2 1 1 5 8 9 9 10 10 9 6 5 5 5 6 8 8 8 7 7 9 10 10 12 6 9 11 13 12 11 10 8 8 7 7 8 9 9 11 11 10 11 9 8 8 8 7 8 8 6 5 7 6 4 5 4 5 5 6 5 5 5 7 6 7 8 8
0 0 3 5 4 3 6 4 2 2 3 2 2 4 4 2 2 3 2 1 2 0 2 4 6 9 8 7 7 6 6 9 9 9 10 9 7 8 9 11 12 11 4 4 5 6 8 8 8 8 7 7 10 9 9 11 12 11 10 11 10 9 9 9 9 8 8 7 8 6 6 4 5 5 6 5 5 5 5 5 5 6 6 7 7 7
1 2 4 3 3 5 5 4 4 3 1 3 0 1 1 3 2 3 3 1 0 1 6 5 6 11 8 8 8 8 9 11 8 10 11 10 9 8 8 11 10 6 8 6 6 6 7 7 7 7 6 6 8 8 9 8 7 8 10 9 9 9 10 9 8 8 9 5 5 5 3 6 3 3 3 3 3 3 5 5 4 5 6 6 6 6
1 5 4 2 2 5 4 3 0 1 0 0 3 1 3 1 1 2 1 1 2 3 2 4 8 14 11 9 14 15 14 15 11 10 9 7 8 8 11 12 7 7 8 8 8 8 7 8 8 6 7 8 6 6 6 7 9 9 9 8 9 9 9 8 7 8 6 6 4 4 4 6 5 4 4 3 2 4 5 6 5 3 4 6 6 7
3 1 2 1 2 0 2 2 1 2 2 3 3 2 3 1 1 2 0 2 3 4 1 5 6 9 8 7 5 8 12 10 8 6 6 6 7 8 8 7 6 7 6 7 7 7 8 8 9 10 8 7 8 8 9 9 9 8 9 8 8 7 8 7 7 8 8 7 6 4 5 5 6 4 5 4 4 6 6 5 6 6 3 4 5 6
2 1 1 3 0 1 2 2 3 3 3 3 6 7 4 3 3 2 2 5 2 1 0 1 6 5 3 4 5 4 2 2 4 5 7 8 7 6 9 11 6 5 5 5 6 7 10 10 6 6 7 8 8 9 9 8 8 6 7 7 7 6 6 7 7 8 8 8 9 8 8 8 6 6 8 11 11 8 8 8 4 4 5 4 4 6
1 0 1 4 3 1 0 1 3 3 2 1 1 4 3 1 4 2 1 1 2 0 1 0 1 8 7 13 11 8 7 9 6 6 9 7 7 8 10 8 7 7 6 5 5 3 7 6 8 7 9 9 9 7 5 5 6 6 6 7 8 7 7 7 7 8 8 8 8 9 9 8 9 9 7 5 5 7 5 5 7 6 4 4 5 5
3 1 3 0 4 4 2 1 2 6 2 2 1 3 1 3 3 1 1 1 3 1 2 4 3 4 8 15 6 7 10 9 8 10 11 9 8 9 7 6 6 6 6 6 6 6 5 9 10 11 9 8 8 5 6 6 6 7 6 7 7 6 7 7 8 9 8 9 8 8 7 7 7 7 6 7 5 5 6 6 6 6 5 4 4 4
2 5 5 4 2 3 5 1 3 6 3 1 1 2 3 3 4 1 1 1 1 2 7 2 1 2 5 8 7 6 9 6 7 9 10 10 7 6 5 4 4 4 4 5 5 5 5 5 6 6 7 6 6 7 7 6 6 6 5 6 6 7 8 8 10 10 9 9 9 9 8 8 6 6 5 6 6 6 7 8 6 6 6 5 4 4
3 1 2 4 5 4 3 2 4 2 3 2 2 3 4 4 2 2 0 1 2 1 7 4 5 3 10 6 7 5 6 8 6 8 8 4 4 5 6 4 4 3 4 4 5 4 3 3 4 5 6 6 6 6 6 5 5 6 5 7 8 7 7 7 8 9 8 8 7 8 8 9 7 6 5 7 7 7 7 8 8 6 6 5 4 4
1 3 4 0 2 1 4 3 2 5 2 4 3 4 1 1 1 0 1 1 2 4 7 8 9 5 8 3 9 6 5 4 8 4 1 5 5 4 4 3 3 4 3 3 4 5 5 3 4 4 6 6 5 5 6 6 6 6 6 7 8 7 6 7 8 8 9 8 7 8 8 9 8 8 8 7 7 6 6 7 7 7 6 5 5 5
1 1 0 0 2 3 4 4 4 1 1 2 1 2 2 1 2 1 1 2 1 7 1 2 7 5 6 4 4 0 1 3 1 0 5 4 5 4 2 3 4 4 5 4 5 5 5 3 2 2 5 6 6 6 6 6 6 6 6 6 6 5 6 6 7 7 8 8 8 7 8 9 8 8 7 7 7 7 7 6 7 5 5 5 5 5
2 3 2 3 5 2 2 5 4 3 1 1 2 2 4 1 2 2 1 3 5 7 0 2 2 2 15 8 4 5 6 2 1 1 1 3 5 4 2 2 2 3 5 5 5 5 5 6 6 5 5 5 6 7 6 6 6 5 5 6 7 7 6 7 8 8 8 8 9 9 9 9 9 8 7 8 7 7 8 7 7 8 7 6 6 6
2 1 4 2 4 4 3 8 2 1 3 3 6 6 5 3 3 4 4 2 2 1 3 2 2 6 7 7 7 12 11 5 2 2 0 1 2 1 2 2 5 5 5 5 5 6 6 6 6 6 6 6 6 6 7 6 6 6 6 6 8 8 8 7 9 9 9 10 9 8 9 9 8 9 8 8 8 7 7 7 8 8 8 8 9 8
3 3 5 5 3 6 5 7 11 6 8 9 4 8 7 6 3 4 3 5 5 3 0 4 1 8 3 4 1 1 1 1 2 3 0 1 0 2 1 3 5 5 6 5 5 5 6 7 7 7 7 7 7 7 7 6 7 7 7 8 9 8 9 9 10 9 9 8 8 8 8 8 7 8 8 7 7 7 7 7 8 8 7 8 8 9
10 5 2 13 1 12 12 6 6 5 2 4 4 1 3 8 1 3 1 0 0 1 1 1 6 2 4 4 9 5 3 5 3 4 3 4 3 1 3 7 8 7 5 5 5 6 6 7 7 7 7 7 7 8 7 8 8 8 8 8 8 9 7 7 7 7 8 7 6 6 8 8 7 6 6 5 5 6 7 8 8 7 7 7 7 7
3 4 1 3 5 14 9 3 4 7 4 5 3 6 6 1 1 1 2 1 2 2 8 3 7 8 4 12 13 13 13 13 10 5 4 7 5 4 6 8 6 3 5 5 6 7 7 6 6 8 7 6 6 7 9 9 9 9 8 7 7 6 5 7 8 8 7 8 8 8 8 7 7 7 7 8 6 6 7 7 7 7 7 7 6 7
5 2 2 2 3 0 1 1 0 3 0 6 4 5 1 3 2 3 4 1 2 7 7 3 7 11 4 14 3 2 3 2 4 6 8 9 7 6 7 6 7 5 5 7 7 6 6 5 6 5 6 7 8 8 7 8 6 7 7 7 8 8 10 8 10 10 9 9 9 9 9 8 8 8 7 7 8 6 6 6 6 6 6 7 6 6
3 3 2 2 3 2 3 1 1 2 4 3 3 1 5 2 4 2 2 5 4 4 3 4 7 9 9 17 6 9 5 3 3 5 4 4 5 6 5 7 5 1 1 2 4 5 5 5 6 5 5 5 6 7 7 7 7 6 6 7 9 10 10 10 9 9 8 8 7 7 8 9 8 8 7 6 6 6 7 6 5 6 6 6 6 7
2 4 1 2 2 0 0 3 9 3 2 1 3 1 0 1 1 5 6 1 2 6 3 10 4 8 9 12 4 4 3 6 9 7 8 5 3 2 1 2 2 2 3 4 4 5 5 5 5 6 6 6 7 7 7 7 7 8 8 8 7 7 7 8 8 9 10 9 8 7 6 7 8 8 8 7 7 7 7 6 6 6 5 6 6 6
3 4 5 0 4 2 1 5 7 8 8 1 0 2 0 1 1 3 2 5 5 3 5 4 8 9 12 4 5 7 6 3 2 1 3 3 2 3 1 2 3 2 3 4 5 4 4 4 5 5 5 5 4 5 5 7 9 8 6 7 8 9 8 9 9 8 9 9 9 9 9 9 8 8 7 7 7 7 7 6 6 6 6 5 6 6
2 4 7 2 0 5 5 5 7 10 14 12 13 12 13 8 4 4 8 1 1 4 3 4 11 10 15 3 4 0 3 5 4 4 2 3 5 5 4 2 4 2 1 4 5 3 0 1 1 0 1 2 5 5 7 6 6 7 9 8 7 7 7 8 8 8 7 7 7 9 9 9 7 8 6 7 7 7 7 7 7 6 6 6 6 7
6 2 4 5 8 9 6 1 6 1 3 6 9 9 9 6 4 4 7 4 0 3 0 1 4 16 18 2 3 4 4 2 1 2 4 6 7 5 2 1 3 3 4 1 1 1 1 0 1 2 3 4 5 6 6 6 7 8 7 7 7 8 8 7 8 6 6 7 7 7 7 7 8 8 8 9 7 7 7 6 7 7 8 7 6 6
5 1 2 3 3 3 4 1 2 0 1 1 5 4 4 7 7 6 4 3 4 2 3 4 7 13 22 7 1 7 4 4 1 3 7 7 5 4 5 2 1 3 3 1 1 2 3 3 2 2 4 5 5 5 6 6 5 6 7 8 8 10 10 8 8 7 7 7 8 7 7 8 7 9 9 9 8 9 7 8 8 8 8 8 7 8
4 2 5 2 1 0 1 2 2 1 2 2 2 3 3 2 5 3 2 1 3 6 8 7 12 11 20 3 1 3 3 0 4 6 5 6 5 5 5 2 1 1 1 1 4 6 5 5 5 5 5 6 5 5 5 6 7 7 8 8 10 9 8 8 7 8 8 8 9 9 9 8 8 9 9 9 8 9 8 9 8 8 9 8 8 8
4 3 8 8 10 9 6 5 4 3 8 4 3 5 8 9 5 6 7 4 8 6 11 8 10 13 18 10 4 1 3 2 4 4 1 3 4 5 5 5 4 3 4 4 5 5 5 7 6 6 7 7 7 8 7 7 7 7 7 8 7 7 7 8 7 8 8 8 9 9 10 10 9 10 10 10 8 9 9 9 8 9 8 9 9 8
2 1 3 7 9 8 3 2 2 5 3 4 5 8 7 7 8 5 2 4 12 12 12 11 13 17 20 20 11 14 4 6 6 4 4 5 5 6 6 6 5 4 5 6 6 5 3 3 7 8 8 10 10 9 9 9 9 8 8 8 7 7 7 8 8 8 9 9 9 9 10 11 11 10 10 10 9 8 8 8 8 9 9 8 9 9
2 1 5 5 8 6 4 1 3 8 7 8 7 6 8 6 6 10 10 15 12 4 13 13 11 10 20 22 18 11 7 9 11 7 7 7 5 5 5 4 4 5 7 7 7 6 7 8 7 8 10 10 10 10 9 10 11 10 9 9 7 7 8 7 8 8 8 8 8 9 11 10 9 9 9 8 8 8 8 8 8 9 8 8 9 8
4 4 5 4 6 7 4 2 1 3 0 1 5 6 7 9 7 10 15 17 9 8 15 10 4 10 16 18 18 8 4 8 9 8 6 5 7 10 13 11 10 11 12 11 9 7 7 9 9 9 10 11 10 10 12 11 9 7 7 8 8 7 9 7 7 8 8 8 10 11 9 8 7 7 8 8 8 8 8 8 8 8 8 8 7 6
3 4 1 2 4 5 5 3 3 4 2 3 4 3 3 6 12 14 15 14 13 11 12 15 18 19 16 18 18 15 12 13 14 12 12 12 13 12 11 11 12 12 13 12 8 8 8 10 11 10 10 9 9 11 9 8 8 9 10 9 7 8 8 7 8 8 8 10 11 8 8 9 8 8 8 8 9 8 8 8 8 9 9 8 7 7
3 4 4 1 2 9 10 6 4 7 5 5 4 4 6 9 9 11 10 9 9 11 16 19 19 19 18 10 10 17 17 12 12 15 14 14 15 13 9 8 9 12 12 11 10 11 12 10 9 9 8 10 9 11 11 11 10 9 8 8 9 10 8 8 8 8 9 12 9 7 7 8 8 8 9 8 8 7 8 8 7 8 8 7 7 8
3 2 3 3 3 5 9 7 6 4 4 5 6 9 13 14 13 9 8 5 8 14 14 11 12 16 15 8 11 18 20 13 13 17 16 14 14 8 6 8 11 12 12 11 12 12 13 12 9 9 10 11 10 10 10 9 9 8 10 11 12 12 9 9 10 10 11 10 6 7 9 8 8 8 8 8 8 8 7 7 7 7 7 7 7 6
6 5 5 4 5 8 9 4 4 4 1 5 11 19 19 12 11 10 11 13 18 14 11 12 15 12 17 16 13 14 17 18 15 15 17 18 14 7 7 11 13 11 11 11 12 13 12 12 11 11 11 8 10 10 11 12 10 11 12 13 13 7 9 11 11 10 9 8 7 8 8 7 8 8 8 8 7 7 7 8 8 7 7 8 7 6
4 6 5 5 5 5 5 2 3 2 8 11 13 14 14 17 16 16 17 20 18 13 12 13 13 11 11 14 19 20 19 16 14 14 14 14 10 5 7 9 11 9 8 9 11 11 12 12 10 9 9 9 9 11 11 10 12 13 11 8 6 10 11 10 9 9 9 8 8 8 7 7 8 8 8 7 8 7 8 8 8 7 7 7 7 7
6 5 4 4 3 5 4 2 3 13 12 11 7 4 13 17 16 19 21 19 16 15 13 14 15 18 21 20 19 19 18 16 12 13 18 15 8 10 10 14 15 13 13 14 14 13 14 15 12 9 9 9 9 7 5 6 7 5 5 7 9 9 9 9 9 8 8 8 7 7 8 8 8 8 8 8 8 8 8 8 7 8 8 8 8 9
8 8 3 3 2 2 3 4 9 7 3 2 4 9 11 12 13 11 14 14 15 16 16 18 18 20 19 19 19 18 17 14 10 10 16 17 13 9 12 16 14 10 12 13 13 14 13 11 10 10 10 6 5 3 4 6 5 6 6 5 8 8 8 7 7 7 6 7 8 8 8 8 8 8 8 8 8 8 8 8 9 9 7 7 6 5
5 3 3 5 5 7 5 9 12 5 14 11 11 7 4 4 4 9 12 13 14 14 14 14 17 18 18 19 19 16 11 8 11 17 16 14 14 7 10 17 15 12 12 13 11 10 9 7 7 6 3 1 0 1 2 3 5 5 5 6 6 6 6 6 7 8 8 8 8 8 8 8 9 8 9 9 9 9 9 9 8 7 6 7 7 7
10 9 5 7 5 8 9 10 7 6 11 11 14 13 4 4 6 7 8 11 5 8 11 15 16 16 17 17 15 11 6 8 13 16 17 11 3 7 11 10 10 8 7 8 7 6 6 5 3 2 1 0 0 1 2 4 4 5 5 5 4 6 6 7 8 8 8 9 8 8 8 8 9 9 9 9 10 9 8 7 7 8 7 9 8 7
12 13 7 10 6 6 9 11 10 10 9 4 7 6 6 4 7 2 4 10 3 6 5 6 7 10 12 11 10 6 5 9 12 14 12 11 4 4 6 7 6 5 5 5 6 6 5 4 2 1 1 0 2 1 3 4 5 5 5 5 6 6 7 8 8 8 8 7 6 7 7 7 8 9 9 9 8 9 9 9 8 7 6 6 6 7
11 9 7 11 11 12 10 11 10 4 6 5 5 4 0 1 4 1 7 2 5 12 8 8 8 9 10 10 9 7 5 10 12 13 11 5 3 4 5 7 10 10 10 8 6 5 5 4 4 4 3 3 4 4 4 5 5 5 6 6 5 7 8 7 6 5 5 5 6 6 7 7 8 8 9 8 7 7 8 7 7 7 7 6 6 7
7 8 10 15 12 13 16 11 8 7 6 7 10 10 3 1 3 5 10 3 8 8 8 2 2 3 5 8 8 5 5 6 11 14 13 7 7 7 6 4 5 5 7 8 8 6 6 5 3 4 4 3 3 4 4 4 5 5 5 5 6 7 6 5 5 6 6 6 6 6 7 6 8 9 7 8 9 8 7 7 8 8 8 8 7 7
7 6 6 10 15 14 13 14 12 8 3 5 7 3 0 3 6 5 1 2 4 8 8 4 3 2 1 1 4 4 8 11 10 10 12 9 4 4 5 7 8 10 6 3 5 5 6 5 4 3 2 1 0 1 3 4 5 5 5 6 7 6 5 6 6 7 7 7 7 7 7 7 6 8 8 8 9 9 7 6 7 8 8 7 8 9
6 5 5 8 5 7 8 10 10 11 2 5 3 5 1 4 1 1 4 5 2 4 7 9 5 2 2 5 5 6 10 13 13 12 11 10 8 6 7 8 9 9 11 11 11 5 3 6 5 4 2 1 0 1 2 4 5 5 5 6 6 5 6 6 7 7 7 7 7 7 7 7 9 8 7 8 9 10 9 8 8 7 8 9 8 9
4 5 4 5 5 4 7 9 5 2 4 1 4 2 1 2 3 1 1 5 4 3 5 7 8 4 1 3 6 8 9 10 12 12 12 11 9 10 9 7 6 7 8 7 5 5 3 5 4 2 1 1 1 2 3 5 5 5 5 5 4 5 6 7 7 7 7 7 6 7 7 7 8 7 7 8 8 9 9 8 8 7 7 8 9 8
8 9 3 7 3 6 3 2 3 3 2 0 2 1 1 4 3 2 3 3 3 4 2 6 9 10 6 5 5 5 8 10 11 11 10 13 14 13 12 11 9 9 9 9 9 4 3 5 6 4 3 2 1 2 3 4 6 5 6 4 5 6 7 7 7 8 8 7 7 7 7 7 7 7 7 7 9 9 8 8 8 8 6 7 7 8
2 2 2 3 5 2 3 4 3 1 1 1 1 3 2 4 6 3 4 2 3 4 4 6 8 10 9 4 5 7 6 8 11 12 12 13 14 15 13 10 9 7 9 8 8 5 5 4 5 5 5 3 2 2 2 3 4 7 5 4 5 6 7 9 9 9 9 8 8 8 8 9 8 8 8 7 7 8 8 9 8 8 7 7 7 7
1 2 2 3 2 2 5 2 1 2 2 4 6 4 4 5 5 2 2 3 4 6 6 5 7 8 10 7 6 7 10 9 8 11 11 10 12 14 14 14 13 10 9 11 10 6 5 5 6 7 5 5 2 3 2 4 2 4 5 5 5 6 7 9 10 10 10 10 9 8 9 10 8 8 7 7 6 7 7 7 7 8 7 7 7 7
4 1 2 1 2 5 5 5 3 4 5 4 5 5 5 4 1 1 2 4 5 6 5 6 5 7 7 8 8 6 9 8 7 9 10 11 11 12 13 14 14 13 9 9 9 5 6 6 8 7 6 7 3 2 2 3 4 4 6 5 6 7 8 9 10 11 10 11 9 8 9 9 11 10 8 7 7 7 6 6 6 7 7 8 8 8
2 5 3 2 1 4 4 6 8 10 6 5 4 2 3 4 7 9 9 8 5 5 6 6 4 7 6 10 10 8 10 11 8 7 9 10 10 11 13 15 14 13 12 8 6 6 9 7 8 9 8 8 4 3 3 3 3 4 6 7 7 9 10 9 9 9 10 9 8 8 8 8 8 8 8 8 6 5 4 7 6 6 5 3 5 6
3 6 4 5 7 7 7 5 1 6 6 3 3 6 10 8 8 9 8 7 6 6 6 8 10 9 8 8 8 8 10 11 11 6 7 10 10 11 12 14 14 14 13 7 5 6 7 8 8 8 8 7 5 5 5 5 5 5 6 7 7 9 11 11 11 11 10 9 8 9 9 8 8 8 8 8 8 8 8 10 10 6 6 5 7 10
7 4 5 6 7 8 3 3 2 2 5 6 10 8 8 7 7 6 6 6 6 6 6 9 12 13 13 14 11 7 8 9 12 10 8 9 11 10 11 11 13 13 13 7 5 6 8 8 7 7 8 6 4 5 5 6 6 7 6 7 7 8 9 10 10 9 9 9 9 10 9 9 9 8 8 8 8 8 10 9 9 13 12 9 9 11
Wind_Direction
33 145 181 199 207 190 209 220 216 61 24 352 35 23 353 19 11 92 87 39 327 334 256 241 251 255 261 267 270 264 267 256 234 224 224 224 227 228 233 237 235 230 229 203 195 183 185 185 184 180 172 177 170 173 180 182 182 184 184 169 183 183 172 171 172 172 171 175 180 186 195 193 184 189 158 152 159 169 185 189 187 182 185 184 184 181
294 292 225 229 231 243 197 161 92 68 23 55 23 22 320 129 297 38 119 175 34 46 289 306 292 270 266 266 269 265 259 254 243 245 245 240 226 221 227 239 237 237 254 213 197 183 173 172 171 167 164 165 170 190 185 190 190 184 182 181 178 177 181 182 182 175 177 185 188 176 186 166 176 185 190 186 182 169 166 176 185 182 177 176 180 176
72 203 244 218 98 81 48 57 65 33 338 95 344 1 350 283 144 98 75 215 156 109 263 271 297 281 270 271 271 266 257 252 228 223 229 225 231 228 228 238 242 232 233 209 200 176 170 166 163 162 165 178 184 182 188 193 184 184 188 186 177 181 185 186 179 168 182 169 162 157 168 167 177 195 182 193 194 156 152 173 170 180 179 176 175 174
195 230 234 64 66 78 52 76 2 159 72 88 160 151 223 240 85 286 22 356 230 199 264 344 306 286 276 251 249 244 240 247 241 233 242 217 220 219 226 231 226 219 216 207 194 188 177 170 164 158 170 182 171 176 188 190 193 190 192 185 180 182 185 184 179 165 161 155 148 156 149 166 166 173 131 111 124 162 150 176 172 177 182 179 175 173
190 85 332 36 54 125 115 87 156 137 221 212 216 208 230 206 92 97 97 262 233 230 303 318 285 279 268 258 261 250 236 246 263 248 243 234 214 220 238 255 222 216 205 210 203 189 176 173 179 180 178 167 181 187 188 191 192 194 192 189 182 178 182 179 163 153 148 143 155 137 63 85 81 81 130 140 184 188 178 161 179 185 166 169 170 175
192 326 74 102 309 124 117 145 205 174 259 220 207 194 206 287 100 88 45 16 352 328 72 358 356 293 314 320 292 318 29 248 257 233 236 227 223 231 244 244 251 249 225 206 208 193 181 178 172 170 172 181 192 195 198 189 190 182 184 181 177 170 171 169 162 152 149 161 161 158 155 160 167 171 179 194 194 186 185 184 158 145 171 166 169 179
166 4 288 132 141 116 170 212 206 162 233 304 278 356 349 56 88 80 333 40 328 255 265 81 70 282 311 290 280 294 286 274 274 246 247 233 217 217 229 233 227 227 237 242 233 196 151 173 170 182 185 190 193 202 178 178 187 186 178 179 174 168 164 162 161 161 153 160 172 181 186 183 184 185 204 201 201 185 173 147 165 170 172 175 170 182
100 182 80 139 108 138 156 204 207 160 156 256 309 311 26 83 87 94 64 158 240 338 290 153 173 239 296 282 281 262 264 261 261 257 259 249 215 219 218 210 211 212 205 191 203 212 177 173 176 185 191 188 191 177 173 183 183 184 179 171 171 165 160 163 159 172 169 166 174 178 189 190 192 195 192 181 184 165 158 163 164 159 173 171 171 173
140 168 155 163 162 149 182 208 178 167 159 193 251 292 84 80 97 96 133 292 252 43 296 175 179 306 231 269 280 257 278 262 244 247 248 243 234 213 194 151 146 137 129 139 162 179 192 170 176 170 176 182 169 173 177 180 179 177 172 166 168 169 163 171 169 174 177 174 177 177 183 196 205 196 191 172 168 169 168 171 162 165 163 166 158 159
2 136 200 163 148 189 109 16 352 194 142 263 217 87 107 81 64 77 42 78 317 28 259 174 186 241 272 210 258 264 233 262 253 250 253 263 206 138 125 131 120 98 98 103 131 127 122 136 131 148 152 156 171 167 164 165 165 174 171 171 175 179 170 170 169 171 174 174 171 175 184 194 200 194 193 175 179 179 171 175 170 166 162 162 150 147
115 207 160 79 186 83 118 59 48 46 84 134 182 96 67 78 87 298 85 86 22 255 257 184 196 175 295 202 202 195 233 204 238 256 56 75 65 67 89 133 161 159 153 159 135 123 110 91 108 113 141 156 147 154 156 165 170 174 176 176 180 183 165 163 172 173 177 178 182 186 187 195 198 196 194 179 181 169 171 178 171 169 166 160 164 158
143 54 338 193 48 129 110 71 23 355 80 128 136 132 107 7 30 34 339 51 134 261 26 327 183 195 219 293 342 232 25 56 74 14 140 113 118 127 175 184 184 164 165 172 154 144 133 128 139 151 153 155 160 154 162 171 170 175 180 174 179 183 168 163 170 174 180 183 189 187 188 195 197 195 197 191 179 175 177 172 166 157 149 161 162 168
221 217 148 54 301 150 149 87 2 23 354 14 127 99 110 241 63 307 79 250 198 240 238 338 352 1 245 223 311 342 338 318 203 173 91 110 134 170 219 219 175 173 163 171 173 165 167 176 180 190 184 163 169 176 177 175 173 172 176 176 176 191 176 168 167 179 186 191 194 191 191 193 193 199 197 196 189 175 182 173 164 163 171 160 171 184
268 135 149 110 36 258 177 133 148 30 246 192 165 158 125 197 194 236 230 209 240 303 287 348 9 259 275 291 233 249 256 273 342 30 106 30 264 177 167 178 187 188 175 186 183 178 183 183 186 189 186 183 181 180 178 175 172 175 180 184 184 193 183 170 171 179 189 198 198 197 197 195 190 201 203 202 201 186 181 177 176 175 177 179 189 183
216 308 242 123 253 169 204 198 178 168 175 201 195 163 177 159 175 213 173 207 214 207 313 293 70 233 105 242 296 42 136 9 315 304 250 57 351 350 324 254 244 203 200 186 188 190 189 190 178 185 188 188 185 177 178 176 179 179 185 188 191 191 191 178 178 179 189 194 199 201 203 202 198 198 202 207 199 186 179 180 182 183 181 186 192 192
208 220 236 182 151 159 187 208 169 118 147 220 206 215 245 223 76 208 187 112 308 7 312 238 213 230 197 293 288 255 283 305 314 305 341 310 313 316 278 261 247 239 217 197 198 222 218 193 183 182 188 186 178 177 180 184 182 186 191 191 195 195 192 184 177 184 186 192 192 200 204 210 206 199 196 195 189 184 179 181 183 184 183 188 186 185
140 224 61 51 129 174 196 165 210 143 184 215 141 217 198 49 82 11 10 51 106 23 255 172 292 274 304 272 243 253 251 244 244 248 279 284 266 200 250 280 275 240 206 187 205 223 231 209 196 186 178 173 175 181 189 190 188 187 184 186 189 193 191 183 182 183 185 187 186 196 199 203 206 198 197 198 196 185 183 180 183 181 185 181 171 167
144 199 321 88 186 295 349 305 38 29 76 101 191 219 78 48 91 150 217 48 184 218 263 133 250 285 58 290 61 147 259 258 219 233 230 235 258 263 259 269 278 268 204 203 209 221 220 200 191 181 177 178 184 187 188 193 187 186 183 181 185 191 195 190 183 187 190 190 191 190 192 195 199 199 197 194 196 186 176 183 172 166 171 180 172 159
151 252 236 3 352 354 346 19 20 43 41 119 180 310 134 248 256 251 96 242 247 237 281 252 239 264 229 256 260 318 320 318 273 253 229 210 195 221 252 263 270 296 237 225 210 202 205 192 188 187 192 194 187 185 184 182 179 182 187 187 190 197 197 194 185 188 192 191 193 191 190 191 198 204 202 196 185 183 185 183 174 173 168 155 155 151
109 194 273 330 4 158 79 142 198 199 341 34 14 26 67 102 186 155 193 200 118 244 222 270 271 258 234 239 299 274 269 251 260 264 246 209 193 208 220 204 205 228 246 258 251 226 221 209 191 185 190 194 189 184 182 178 179 188 188 187 197 199 197 197 195 183 189 189 189 193 188 191 190 195 199 197 189 185 189 183 176 173 167 167 158 160
253 145 237 240 301 99 202 201 212 155 157 268 69 256 234 143 294 111 305 186 181 203 215 262 278 252 252 206 219 227 235 241 205 107 92 104 73 24 34 171 216 225 247 264 267 264 207 197 187 188 188 191 185 181 179 184 189 187 186 196 196 197 199 202 201 190 192 181 189 187 192 188 185 189 185 191 198 196 189 177 172 176 175 152 171 152
191 153 196 105 1 232 237 191 199 180 186 185 185 203 192 165 169 189 254 182 185 191 226 223 255 280 265 139 253 157 46 30 63 75 20 349 343 324 299 153 166 188 257 261 270 320 42 115 120 290 229 175 178 192 192 195 183 188 196 197 195 198 204 201 205 201 191 189 187 192 194 188 180 179 180 186 190 191 187 173 172 168 159 175 173 165
167 153 151 183 206 205 213 216 203 107 197 217 190 221 202 196 172 163 214 249 103 249 251 193 304 261 267 142 275 292 317 318 132 31 321 312 311 295 274 154 147 171 191 200 83 63 54 74 170 192 214 224 217 211 202 202 201 200 198 194 198 198 209 200 201 196 184 187 191 200 201 190 175 166 177 183 188 188 180 170 162 162 170 175 170 174
111 174 164 256 107 36 35 77 29 5 94 315 260 228 162 205 188 196 185 182 174 187 204 248 238 267 274 266 237 266 240 178 268 296 285 284 277 278 276 274 159 69 52 143 173 160 156 147 154 185 219 228 233 225 218 220 218 210 203 202 197 204 202 199 194 190 185 185 192 193 196 198 182 169 172 180 184 186 180 170 168 166 172 172 168 174
153 237 157 145 189 94 18 11 349 4 24 238 204 205 192 200 183 190 126 76 237 197 201 179 239 249 263 44 158 81 114 101 257 268 241 251 268 266 279 302 92 128 154 212 214 211 191 176 184 201 213 225 238 243 233 229 226 218 216 204 205 207 199 198 191 188 190 184 187 190 194 200 188 181 181 181 179 182 175 173 168 170 172 168 173 174
160 180 159 184 197 202 207 189 211 235 224 227 223 210 202 195 164 111 201 163 220 221 214 215 247 254 270 268 295 207 116 215 250 253 264 219 238 267 282 289 275 228 223 227 235 225 216 212 204 210 210 207 214 220 227 227 230 233 231 225 211 203 199 200 193 194 189 187 184 190 194 198 192 188 184 184 182 180 178 174 170 170 173 171 172 171
153 316 189 199 207 212 189 178 233 143 90 185 225 200 216 202 200 181 135 179 216 223 230 234 236 260 269 274 274 273 289 306 290 318 309 300 282 266 257 256 257 251 254 252 254 258 264 243 228 231 217 210 207 206 210 212 216 221 225 230 219 207 200 199 192 196 195 192 190 189 198 198 197 187 185 185 184 178 177 176 172 170 175 174 172 172
73 235 241 229 240 246 256 74 135 139 170 208 207 220 214 214 198 200 201 225 217 225 255 236 240 253 265 273 270 276 299 289 283 288 288 287 296 290 268 274 259 262 264 265 267 269 263 258 254 237 231 223 219 206 204 209 209 207 210 222 222 212 202 200 192 196 198 193 199 203 204 203 194 187 184 181 179 181 179 173 172 175 172 171 176 175
138 205 242 248 263 261 277 346 7 349 146 214 200 197 199 211 207 206 226 238 231 217 243 263 260 249 260 269 280 288 298 282 292 301 288 288 305 305 300 295 287 281 280 275 266 263 265 267 259 248 237 231 222 214 213 212 209 203 208 213 214 210 212 196 189 198 197 195 204 211 203 200 197 183 179 176 178 179 179 174 172 170 171 175 175 170
87 232 84 70 286 284 281 281 312 288 276 309 304 282 239 202 216 219 231 236 236 247 261 268 266 263 264 272 284 300 290 287 292 292 291 291 283 278 276 276 275 272 266 264 265 266 264 260 257 251 246 240 228 228 224 215 208 206 206 210 209 211 214 183 201 198 202 206 212 205 198 199 191 181 175 178 179 179 176 172 169 167 170 174 170 168
123 247 147 71 272 269 267 267 270 269 275 268 276 281 262 260 248 229 233 240 245 253 250 253 262 271 263 270 304 287 280 283 286 282 279 276 278 276 270 267 268 264 262 266 272 273 271 266 261 261 257 249 236 227 224 219 213 205 201 201 206 212 204 186 199 205 207 217 210 195 194 198 192 171 179 181 176 173 171 172 166 165 164 164 163 162
143 254 81 127 191 257 254 233 236 238 248 248 251 246 242 235 240 244 240 219 226 236 241 256 261 258 277 291 259 270 279 281 277 278 276 273 268 275 277 271 264 262 262 261 265 272 278 280 272 258 252 250 241 230 223 216 209 199 208 205 205 206 185 189 200 205 213 218 201 194 196 199 182 174 175 170 177 170 170 166 164 165 161 156 156 155
173 168 155 153 215 243 252 154 204 203 206 259 236 237 235 238 237 240 241 233 233 233 240 235 245 254 259 265 272 270 270 272 269 272 277 276 275 267 251 256 260 258 258 262 267 271 274 271 266 262 257 249 243 235 225 213 204 205 208 207 211 175 179 196 199 203 212 211 200 200 196 191 183 174 169 173 166 165 162 163 164 163 158 162 157 149
165 173 175 156 217 244 253 163 171 151 226 231 229 222 215 226 223 229 236 234 235 224 229 229 248 261 270 268 259 259 262 262 265 269 264 268 289 275 258 260 260 258 261 265 266 273 274 272 267 261 255 256 248 232 228 207 205 212 207 196 162 180 195 190 199 198 208 203 202 197 190 186 177 174 170 162 161 160 162 162 167 161 157 151 151 157
176 187 202 190 199 234 263 126 193 227 236 242 247 194 215 224 221 225 235 237 237 238 242 251 251 245 245 250 258 264 267 269 270 276 281 280 271 272 270 265 265 264 267 272 276 272 272 274 278 279 278 273 263 254 221 215 212 188 155 169 181 187 186 193 192 197 198 198 199 189 187 182 174 169 162 161 159 160 164 163 155 155 159 158 162 164
182 183 179 237 183 294 262 205 238 218 191 269 259 231 227 220 224 234 253 250 244 237 231 236 241 248 252 258 262 263 267 281 291 272 266 274 269 256 267 268 268 266 267 268 269 270 271 276 276 277 277 275 258 221 179 198 172 165 184 167 178 181 187 183 187 195 186 194 193 189 183 173 169 162 157 158 160 161 163 162 160 160 157 152 155 152
186 180 193 236 191 231 221 236 244 324 307 286 283 252 188 193 181 195 238 245 236 235 238 240 243 247 252 255 258 269 286 303 293 280 268 259 272 262 251 268 273 269 266 265 267 278 287 280 283 283 283 355 90 149 169 144 141 147 149 167 179 173 175 172 188 192 189 190 188 183 176 170 162 160 158 158 159 163 163 159 154 151 146 146 151 153
198 206 168 212 224 202 229 258 262 244 245 248 238 266 251 197 200 199 202 253 239 239 224 231 238 245 253 257 262 270 287 296 278 274 277 285 271 253 256 263 279 294 307 318 324 313 309 323 360 26 53 67 68 164 154 144 142 144 159 173 165 163 176 179 196 189 185 188 183 175 169 165 158 156 157 157 163 164 161 154 148 152 154 153 155 157
197 202 197 213 236 228 226 232 237 241 242 245 267 233 259 232 218 176 186 258 225 255 265 247 246 246 247 256 264 261 252 256 260 268 285 298 351 301 313 317 318 324 326 339 347 341 338 341 10 1 67 146 199 206 148 149 147 152 174 174 173 173 180 195 193 187 185 182 169 162 158 155 154 154 156 158 159 156 154 156 154 146 141 142 139 140
204 204 195 223 220 228 235 237 241 218 250 239 246 270 267 137 99 126 247 214 34 337 357 354 322 311 327 327 305 281 228 255 261 270 287 11 43 348 4 341 331 333 326 327 336 345 320 314 331 322 298 249 235 185 153 150 153 168 175 182 171 180 194 195 187 170 156 151 151 148 148 150 149 150 150 150 146 147 146 136 131 139 137 136 136 136
203 217 209 220 220 228 230 247 261 260 262 271 273 272 265 119 20 267 246 282 325 326 331 32 10 49 21 359 356 333 301 305 309 314 323 340 2 346 329 321 303 297 303 314 310 326 324 316 300 282 267 241 185 167 159 149 153 176 176 167 173 198 191 175 155 148 145 139 137 140 142 143 146 144 143 143 143 139 135 137 137 135 134 132 128 126
201 201 218 216 228 227 229 236 239 268 233 234 253 272 242 72 224 255 330 214 247 309 313 322 353 6 67 338 307 287 281 289 298 307 321 332 327 300 303 314 323 324 301 273 283 316 315 312 317 325 350 354 150 163 165 156 170 178 166 166 187 191 167 147 144 139 134 135 137 138 137 135 132 133 133 132 131 131 128 128 131 133 132 129 131 130
191 196 198 209 207 236 229 244 242 238 324 34 298 328 78 194 202 162 252 291 259 298 318 326 345 315 48 328 295 293 306 313 316 315 314 316 326 326 331 328 325 315 312 318 317 308 303 303 293 284 272 303 292 225 195 165 175 175 174 175 188 160 140 136 130 129 129 129 130 130 129 129 129 130 131 135 135 131 129 131 128 128 128 130 128 128
198 209 212 223 195 217 208 225 222 193 121 321 48 171 50 143 245 218 166 286 308 309 317 324 319 315 313 290 291 300 298 300 305 310 315 312 313 316 316 314 298 295 293 283 263 289 306 283 279 260 269 267 276 247 205 176 177 173 169 180 167 129 123 123 123 120 120 120 120 119 120 122 121 121 124 126 124 123 127 130 129 127 132 134 134 134
159 214 196 228 219 205 222 232 153 145 166 271 122 129 331 285 274 202 196 211 271 302 299 327 304 309 312 303 286 271 294 295 292 298 304 302 307 307 307 306 300 290 284 283 286 261 244 253 256 240 244 253 253 257 214 200 171 172 164 179 139 136 131 127 121 117 118 118 118 116 116 112 114 118 119 122 124 125 128 128 128 125 133 132 134 137
355 117 85 100 270 252 244 218 233 107 98 137 196 189 225 262 263 193 190 219 244 242 269 279 288 294 298 289 304 298 269 277 295 298 297 300 302 302 304 303 293 277 272 277 278 258 243 253 242 232 233 236 204 209 210 206 181 170 176 152 137 136 132 128 124 122 124 121 120 120 119 114 112 114 119 120 125 130 138 138 137 135 139 137 140 142
248 113 56 158 282 339 271 100 92 286 308 335 305 272 257 243 251 166 163 203 252 265 269 255 259 283 288 292 270 263 280 282 282 285 288 290 293 296 301 301 296 281 268 270 265 253 245 225 238 237 233 236 237 182 194 171 171 154 147 147 140 137 135 132 130 129 128 127 126 125 123 123 126 123 119 119 121 127 133 135 137 139 142 147 149 148
307 128 71 218 206 221 241 296 271 272 272 270 263 285 300 304 298 266 250 261 265 269 259 267 277 284 285 291 275 267 272 273 269 277 285 286 288 293 294 294 292 293 273 248 258 228 237 232 234 233 222 222 234 210 194 151 146 150 142 141 140 140 136 135 137 135 135 134 133 132 133 128 129 127 124 125 129 131 131 131 140 143 152 160 158 154
179 14 215 236 203 269 296 298 287 287 311 292 289 275 262 301 316 317 315 310 291 279 285 285 259 251 268 273 284 285 284 282 267 258 271 279 285 290 293 294 296 291 289 276 247 219 227 237 237 231 215 212 188 185 179 158 153 155 152 152 150 148 141 137 132 128 128 130 128 129 131 131 132 130 128 124 111 95 111 139 139 125 100 93 149 157
293 249 230 276 289 279 247 262 8 307 302 294 307 308 308 305 304 298 298 296 297 304 303 307 303 293 269 264 269 272 272 279 287 275 269 278 280 282 286 290 293 296 293 275 244 227 233 235 234 230 217 202 181 176 170 162 161 162 163 157 157 154 145 142 138 136 138 138 134 134 135 134 130 124 121 121 119 110 88 75 89 99 115 111 116 135
223 221 231 230 232 251 268 243 209 229 257 263 281 287 285 289 290 294 289 289 292 288 287 295 299 298 299 296 293 275 267 275 285 295 289 282 281 275 275 280 285 288 291 278 242 245 230 236 229 225 217 199 179 181 175 167 165 162 166 164 159 155 149 144 141 141 141 143 146 147 143 139 133 132 130 129 125 121 116 109 87 90 93 95 93 97